AirNav   Air Wisconsin pilot careers
 
 1428 users online  

7K6 Wilcox Field Airport
Anthony, Kansas, USA

GOING TO ANTHONY?


FAA INFORMATION EFFECTIVE 29 MARCH 2018

Location

FAA Identifier: 7K6
Lat/Long: 37-04-57.6000N / 097-57-52.1000W
37-04.960000N / 097-57.868333W
37.0826667 / -97.9644722
(estimated)
Elevation: 1263 ft. / 385.0 m (surveyed)
Variation: 07E (1985)
From city: 5 miles SE of ANTHONY, KS
Time zone: UTC -5 (UTC -6 during Standard Time)
Zip code: 67003

Airport Operations

Airport use: Open to the public
Activation date: 04/1968
Control tower: no
ARTCC: KANSAS CITY CENTER
FSS: WICHITA FLIGHT SERVICE STATION
NOTAMs facility: ICT (NOTAM-D service available)
Attendance: UNATNDD
Wind indicator: yes
Segmented circle: no

Airport Communications

CTAF: 122.9

Nearby radio navigation aids

VOR radial/distance  VOR name  Freq  Var
ANYr108/10.9ANTHONY VORTAC112.9007E

Airport Services

Parking: tiedowns
Airframe service: MAJOR
Powerplant service: NONE
Bottled oxygen: NONE
Bulk oxygen: NONE

Runway Information

Runway 18/36

Dimensions: 2100 x 80 ft. / 640 x 24 m
Surface: turf, in fair condition
SURFACE ROUGH.
Gradient: N
RUNWAY 18  RUNWAY 36
Latitude: 37-05.131528N37-04.786850N
Longitude: 097-57.849218W097-57.888920W
Elevation: 1262.0 ft.1255.0 ft.
Gradient: 0.3% UP
Traffic pattern: leftleft
Runway heading: 178 magnetic, 185 true358 magnetic, 005 true
Obstructions: 18 ft. tree, 500 ft. from runway, 27:1 slope to clear34 ft. trees, 90 ft. from runway, 20 ft. left of centerline, 2:1 slope to clear

Runway B1

Dimensions: 1400 x 1600 ft. / 427 x 488 m
Surface: turf, in poor condition
ROUGH CULTIVATED FIELD.
Traffic pattern: leftleft

Airport Ownership and Management from official FAA records

Ownership: Privately-owned
Owner: HERBERT L. WILCOX
462 SE 40TH AVE
ANTHONY, KS 67003
Phone 620-842-3261
Manager: HERBERT L. WILCOX
462 SE 40TH AVE
ANTHONY, KS 67003
Phone 620-842-3367

Airport Operational Statistics

Aircraft based on the field: 2
Single engine airplanes: 2
    
Aircraft operations: 80/year *
88% local general aviation
12% transient general aviation
* for 12-month period ending 26 June 2015

Additional Remarks

6 BALLOONS BASED ON ARPT.
FARM ANIMALS OCNLY GRAZE ON RY 18/36 & ON B1.
RY B1 TREES EAST & SOUTH; POWERLINE WEST.
PROPANE & HELIUM GAS AVBL; CALL AMGR (620) 842-3367.

Instrument Procedures

There are no published instrument procedures at 7K6.

Some nearby airports with instrument procedures:

KANY - Anthony Municipal Airport (7 nm NW)
8K2 - Harper Municipal Airport (12 nm N)
O53 - Medford Municipal Airport (20 nm SE)
KEGT - Wellington Municipal Airport (31 nm NE)
KBKN - Blackwell-Tonkawa Municipal Airport (36 nm SE)
 
Loc | Ops | Rwys | IFR | FBO | Links
Com | Nav | Svcs | Stats | Notes

Kansas City Aviation Department
 
Area around 7K6 (Wilcox Field Airport)
 
Road maps at: MapQuest Bing Google
 
Aerial photo
WARNING: Photo may not be current or correct
Aerial photo of 7K6 (Wilcox Field Airport)
Photo by Von Rothenberger
Photo taken 03-Sep-2010
looking north.

Do you have a better or more recent aerial photo of Wilcox Field Airport that you would like to share? If so, please send us your photo.

 
Sectional chart

 
Airport distance calculator
Flying to Wilcox Field Airport? Find the distance to fly.

From to 7K6

Sunrise and sunset
Times for 20-Apr-2018
 Local
(UTC-5)
 Zulu
(UTC)
Morning civil twilight06:2511:25
Sunrise06:5211:52
Sunset20:1001:10
Evening civil twilight20:3701:37

Current date and time
Zulu (UTC)  20-Apr-2018 20:17:26
Local (UTC-5)  20-Apr-2018 15:17:26
 
METAR
8K2 
12nm N 
SuperAWOS
201955Z AUTO 00000KT 10SM 18/01 A3017
TAF
KICT 
42nm NE 
201735Z 2018/2118 14015G22KT P6SM BKN250 FM210300 11010KT P6SM VCSH OVC100 FM210600 10008KT P6SM -SHRA OVC090 FM210900 10010KT 6SM SHRA OVC025 FM211100 10012KT 5SM SHRA OVC007
KEND 
46nm S 
201800Z 2018/2124 13015G25KT 9999 FEW100 SCT140 BKN200 520008 QNH3006INS BECMG 2100/2101 10009KT 9999 BKN100 QNH3009INS BECMG 2101/2102 10009KT 8000 -SHRA BKN100 QNH3012INS TEMPO 2103/2107 4800 -TSRA OVC020CB BECMG 2108/2109 06006KT 8000 -SHRA BKN015 QNH3005INS TX19/2021Z TN05/2112Z
KIAB 
46nm NE 
201800Z 2018/2124 17015G20KT 9999 FEW040 SCT100 BKN160 QNH3010INS BECMG 2023/2024 10009KT 9999 FEW030 BKN140 QNH3015INS BECMG 2104/2105 09009KT 6000 -SHRA SCT008 OVC015 620709 510102 QNH3016INS BECMG 2106/2107 10010G15KT 3200 SHRA VCTS OVC005CB 620509 QNH3014INS BECMG 2111/2112 09012KT 6000 -SHRA OVC007 620609 QNH3013INS BECMG 2116/2117 06012G18KT 8000 -SHRA OVC007 QNH3012INS TX18/2021Z TN07/2112Z
KPNC 
46nm SE 
201720Z 2018/2118 12013G20KT P6SM BKN100 BKN250 FM210300 12012KT P6SM OVC070 TEMPO 2103/2107 -SHRA OVC035 FM210700 12012KT 6SM -RA OVC020
NOTAMs
Click for the latest NOTAMs
NOTAMs are issued by the DoD/FAA and will open in a separate window not controlled by AirNav.

 

 
 

Would you like to see your business listed on this page?

 If your business provides an interesting product or service to pilots, flight crews, aircraft, or users of the Wilcox Field Airport, you should consider listing it here.  To start the listing process, click on the button below
 
Add a business
 

Other Pages about Wilcox Field Airport

Update a link
 
Copyright © AirNav, LLC. All rights reserved. Privacy Policy  Contact